When you browse on this site, cookies collect data to enhance your experience and personalize the content and advertising you see.
Visit our Privacy Policy to learn more. By continuing to use the site, you agree to this use of cookies and data.
  • In Hungary
  • List of Countries
  • For 7 days
  • Water Temperature
  • Weather Map
  • News
  • Weather Widgets
  • user-avatar
    Login

    Hourly Weather Ogorodniki

    Today, 10 December, Tuesday

    Time Temperature Precipitation Wind Pressure Humidity
    00:00 +2°C° 0 mm 3 mps 739 mmHg 93%
    01:00 +2°C° 0 mm 3 mps 740 mmHg 94%
    02:00 +1°C° 0 mm 3 mps 740 mmHg 94%
    03:00 +1°C° 0 mm 3 mps 741 mmHg 94%
    04:00 +1°C° 0 mm 3 mps 741 mmHg 94%
    05:00 +1°C° 0 mm 3 mps 741 mmHg 93%
    06:00 +1°C° 0 mm 3 mps 741 mmHg 93%
    07:00 0°C° 0 mm 4 mps 741 mmHg 92%
    08:00 +1°C° 0 mm 4 mps 741 mmHg 91%
    09:00 +1°C° 0 mm 4 mps 742 mmHg 90%
    10:00 +1°C° 0 mm 4 mps 742 mmHg 89%
    11:00 +3°C° 0 mm 4 mps 742 mmHg 88%
    12:00 +3°C° 0 mm 4 mps 742 mmHg 88%
    13:00 +3°C° 0 mm 3 mps 743 mmHg 88%
    14:00 +3°C° 0 mm 3 mps 743 mmHg 88%
    15:00 +3°C° 0 mm 3 mps 743 mmHg 88%
    16:00 +3°C° 0 mm 3 mps 743 mmHg 89%
    17:00 +3°C° 0 mm 2 mps 743 mmHg 89%
    18:00 +3°C° 0.1 mm 2 mps 744 mmHg 87%
    19:00 +3°C° 0.1 mm 2 mps 745 mmHg 84%
    20:00 +3°C° 0.1 mm 2 mps 746 mmHg 81%
    21:00 +3°C° 0 mm 2 mps 746 mmHg 84%
    22:00 +2°C° 0 mm 2 mps 746 mmHg 88%
    23:00 +2°C° 0 mm 2 mps 747 mmHg 91%

    Tomorrow, 11 December, Wednesday

    Time Temperature Precipitation Wind Pressure Humidity
    00:00 +2°C° 0 mm 2 mps 748 mmHg 92%
    01:00 +2°C° 0 mm 2 mps 748 mmHg 93%
    02:00 +1°C° 0 mm 2 mps 749 mmHg 95%
    03:00 +1°C° 0 mm 2 mps 749 mmHg 92%
    04:00 +1°C° 0 mm 2 mps 749 mmHg 90%
    05:00 -1°C° 0 mm 3 mps 749 mmHg 88%
    06:00 -1°C° 0 mm 2 mps 749 mmHg 88%
    07:00 -2°C° 0 mm 2 mps 750 mmHg 88%
    08:00 0°C° 0 mm 1 mps 750 mmHg 88%
    09:00 0°C° 0 mm 1 mps 750 mmHg 87%
    10:00 0°C° 0 mm 1 mps 750 mmHg 85%
    11:00 +1°C° 0 mm 1 mps 750 mmHg 84%
    12:00 +1°C° 0 mm 1 mps 750 mmHg 83%
    13:00 +1°C° 0 mm 1 mps 750 mmHg 82%
    14:00 +2°C° 0 mm 1 mps 750 mmHg 81%
    15:00 -1°C° 0 mm 2 mps 750 mmHg 84%
    16:00 -1°C° 0 mm 2 mps 749 mmHg 87%
    17:00 -2°C° 0 mm 2 mps 749 mmHg 90%
    18:00 -1°C° 0 mm 2 mps 749 mmHg 90%
    19:00 -1°C° 0 mm 2 mps 749 mmHg 89%
    20:00 -1°C° 0 mm 3 mps 749 mmHg 88%
    21:00 -1°C° 0 mm 3 mps 749 mmHg 88%
    22:00 -1°C° 0 mm 3 mps 749 mmHg 87%
    23:00 -1°C° 0 mm 3 mps 748 mmHg 87%

    Day after tomorrow, 12 December, Thursday

    Time Temperature Precipitation Wind Pressure Humidity
    00:00 -1°C° 0 mm 3 mps 748 mmHg 86%
    01:00 -1°C° 0 mm 3 mps 748 mmHg 86%
    02:00 -1°C° 0 mm 3 mps 748 mmHg 85%
    03:00 -2°C° 0 mm 4 mps 748 mmHg 87%
    04:00 -3°C° 0 mm 4 mps 747 mmHg 89%
    05:00 -3°C° 0 mm 4 mps 747 mmHg 90%
    06:00 -3°C° 0 mm 4 mps 746 mmHg 90%
    07:00 -3°C° 0 mm 4 mps 746 mmHg 90%
    08:00 -4°C° 0 mm 5 mps 746 mmHg 90%
    09:00 -2°C° 0.4 mm 5 mps 745 mmHg 92%
    10:00 -1°C° 0.4 mm 5 mps 745 mmHg 94%
    11:00 0°C° 0.4 mm 5 mps 744 mmHg 96%
    12:00 0°C° 0.3 mm 5 mps 744 mmHg 93%
    13:00 +1°C° 0.3 mm 5 mps 743 mmHg 91%
    14:00 +1°C° 0.3 mm 5 mps 743 mmHg 88%
    15:00 +1°C° 0.1 mm 5 mps 743 mmHg 88%
    16:00 +1°C° 0.1 mm 5 mps 743 mmHg 88%
    17:00 +1°C° 0.1 mm 5 mps 742 mmHg 88%
    18:00 +1°C° 0 mm 5 mps 743 mmHg 89%
    19:00 +1°C° 0 mm 5 mps 743 mmHg 89%
    20:00 0°C° 0 mm 5 mps 743 mmHg 90%
    21:00 0°C° 0 mm 5 mps 743 mmHg 90%
    22:00 0°C° 0 mm 5 mps 743 mmHg 89%
    23:00 0°C° 0 mm 5 mps 742 mmHg 89%

    13 December, Friday

    Time Temperature Precipitation Wind Pressure Humidity
    00:00 0°C° 0 mm 5 mps 742 mmHg 88%
    01:00 0°C° 0 mm 5 mps 742 mmHg 88%
    02:00 +1°C° 0 mm 5 mps 741 mmHg 87%
    03:00 +1°C° 0 mm 6 mps 741 mmHg 87%
    04:00 -1°C° 0 mm 6 mps 740 mmHg 87%
    05:00 -1°C° 0 mm 6 mps 740 mmHg 87%
    06:00 +1°C° 0 mm 6 mps 739 mmHg 88%
    07:00 +1°C° 0 mm 6 mps 739 mmHg 88%
    08:00 +1°C° 0 mm 6 mps 739 mmHg 88%
    09:00 +1°C° 0 mm 6 mps 738 mmHg 88%
    10:00 0°C° 0 mm 7 mps 738 mmHg 88%
    11:00 0°C° 0 mm 7 mps 738 mmHg 88%
    12:00 0°C° 0 mm 7 mps 738 mmHg 90%
    13:00 -1°C° 0 mm 7 mps 738 mmHg 91%
    14:00 -1°C° 0 mm 7 mps 738 mmHg 93%
    15:00 -1°C° 0 mm 7 mps 738 mmHg 91%
    16:00 -1°C° 0 mm 7 mps 738 mmHg 90%
    17:00 -1°C° 0 mm 6 mps 738 mmHg 88%
    18:00 -1°C° 0 mm 6 mps 738 mmHg 88%
    19:00 -1°C° 0 mm 6 mps 738 mmHg 87%
    20:00 -1°C° 0 mm 6 mps 738 mmHg 86%
    21:00 -1°C° 0 mm 6 mps 738 mmHg 87%
    22:00 -1°C° 0 mm 6 mps 738 mmHg 88%
    23:00 -1°C° 0 mm 6 mps 738 mmHg 89%

    14 December, Saturday

    Time Temperature Precipitation Wind Pressure Humidity
    00:00 -1°C° 0 mm 6 mps 738 mmHg 88%
    01:00 -1°C° 0 mm 6 mps 738 mmHg 87%
    02:00 -1°C° 0 mm 6 mps 738 mmHg 86%
    03:00 -1°C° 0 mm 6 mps 738 mmHg 86%
    04:00 -1°C° 0 mm 7 mps 738 mmHg 85%
    05:00 -1°C° 0 mm 7 mps 738 mmHg 85%
    06:00 -1°C° 0 mm 7 mps 738 mmHg 86%
    07:00 -1°C° 0 mm 7 mps 738 mmHg 87%
    08:00 -1°C° 0 mm 7 mps 738 mmHg 88%
    09:00 -1°C° 0 mm 7 mps 738 mmHg 88%
    10:00 0°C° 0 mm 7 mps 738 mmHg 87%
    11:00 0°C° 0 mm 7 mps 738 mmHg 87%
    12:00 0°C° 0 mm 7 mps 738 mmHg 85%
    13:00 +2°C° 0 mm 7 mps 738 mmHg 84%
    14:00 +2°C° 0 mm 7 mps 737 mmHg 82%
    15:00 +2°C° 0 mm 7 mps 737 mmHg 83%
    16:00 +2°C° 0 mm 7 mps 737 mmHg 83%
    17:00 0°C° 0 mm 7 mps 736 mmHg 84%
    18:00 +2°C° 0 mm 7 mps 736 mmHg 85%
    19:00 +2°C° 0 mm 7 mps 736 mmHg 85%
    20:00 +2°C° 0 mm 7 mps 735 mmHg 86%
    21:00 +2°C° 0.1 mm 7 mps 735 mmHg 86%
    22:00 +2°C° 0.1 mm 7 mps 734 mmHg 87%
    23:00 +1°C° 0.1 mm 8 mps 733 mmHg 88%

    15 December, Sunday

    Time Temperature Precipitation Wind Pressure Humidity
    00:00 +3°C° 0.5 mm 7 mps 733 mmHg 88%
    01:00 +3°C° 0.5 mm 7 mps 733 mmHg 88%
    02:00 +3°C° 0.5 mm 7 mps 732 mmHg 88%
    03:00 +3°C° 0.2 mm 7 mps 732 mmHg 85%
    04:00 +2°C° 0.2 mm 7 mps 733 mmHg 83%
    05:00 +2°C° 0.2 mm 6 mps 733 mmHg 80%
    06:00 +2°C° 0 mm 6 mps 733 mmHg 81%
    07:00 +1°C° 0 mm 6 mps 733 mmHg 81%
    08:00 +1°C° 0 mm 6 mps 734 mmHg 82%
    09:00 0°C° 0.3 mm 7 mps 734 mmHg 79%
    10:00 +2°C° 0.3 mm 7 mps 734 mmHg 77%
    11:00 +1°C° 0.3 mm 8 mps 735 mmHg 75%
    12:00 +1°C° 0 mm 8 mps 735 mmHg 73%
    13:00 +1°C° 0 mm 8 mps 735 mmHg 71%
    14:00 +1°C° 0 mm 8 mps 735 mmHg 70%
    15:00 0°C° 0 mm 8 mps 736 mmHg 70%
    16:00 0°C° 0 mm 7 mps 737 mmHg 70%
    17:00 0°C° 0 mm 7 mps 737 mmHg 70%
    18:00 0°C° 0 mm 7 mps 738 mmHg 72%
    19:00 -1°C° 0 mm 6 mps 738 mmHg 74%
    20:00 -1°C° 0 mm 6 mps 738 mmHg 76%
    21:00 0°C° 0 mm 5 mps 738 mmHg 77%
    22:00 -1°C° 0 mm 5 mps 738 mmHg 78%
    23:00 -1°C° 0 mm 5 mps 738 mmHg 79%
    Show more